Change the Weather History Date:

Sunday, January 19, 2014

  Actual Average (KBFD) Record (KBFD)
Temperature  
Mean Temperature 18 °F 21 °F  
Max Temperature 26 °F 29 °F 47 °F (1973)
Min Temperature 10 °F 13 °F -26 °F (1994)
Degree Days  
Heating Degree Days 47 38  
Month to date heating degree days 722  
Since 1 July heating degree days 3778  
Cooling Degree Days 0 0  
Month to date cooling degree days 0  
Year to date cooling degree days 0  
Moisture  
Dew Point 13 °F    
Average Humidity 81    
Maximum Humidity 93    
Minimum Humidity 68    
Precipitation  
Precipitation 0.00 in 0.11 in 2.00 in (1988)
Month to date precipitation 2.07  
Year to date precipitation 2.07  
Sea Level Pressure  
Sea Level Pressure 29.55 in    
Wind  
Wind Speed 8 mph (SW)    
Max Wind Speed 16 mph    
Max Gust Speed 31 mph    
Visibility 8 miles    
Events Snow    
T = Trace of Precipitation, MM = Missing Value Source: NWS Daily Summary

Daily Weather History Graph

Daily Weather History Graph

Search for Another Location

Airport or City:

Trip Planner

Search our weather history database for the weather conditions in past years. The results will help you decide how hot, cold, wet, or windy it might be!

Date:

Astronomy

Jan. 19, 2014 Rise Set
Actual Time 7:37 AM EST 5:11 PM EST
Civil Twilight 7:06 AM EST 5:42 PM EST
Nautical Twilight 6:32 AM EST 6:16 PM EST
Astronomical Twilight 5:59 AM EST 6:49 PM EST
Moon 8:52 PM EST (1/19) 9:02 AM EST (1/19)
Length of Visible Light 10h 35m
Length of Day
9h 33m
Waning Gibbous, 89% of the Moon is Illuminated
Jan 19
Waning Gibbous
Jan 24
Last Quarter
Jan 30
New
Feb 6
First Quarter
Feb 14
Full

Hourly Weather History & Observations

Time (EST) Temp. Windchill Dew Point Humidity Pressure Visibility Wind Dir Wind Speed Gust Speed Precip Events Conditions
12:15 AM 10.4 °F -1.5 °F 6.8 °F 85% 29.72 in 10.0 mi SW 8.1 mph - N/A   Overcast
12:35 AM 10.4 °F -1.5 °F 6.8 °F 85% 29.71 in 10.0 mi SW 8.1 mph - N/A   Overcast
12:55 AM 10.4 °F -0.4 °F 6.8 °F 85% 29.71 in 10.0 mi SW 6.9 mph - N/A   Overcast
1:15 AM 10.4 °F 2.2 °F 6.8 °F 85% 29.71 in 10.0 mi SW 4.6 mph - N/A Snow Light Snow
1:35 AM 10.4 °F 2.2 °F 6.8 °F 85% 29.69 in 10.0 mi SSW 4.6 mph - N/A   Overcast
1:55 AM 10.4 °F 2.2 °F 6.8 °F 85% 29.69 in 10.0 mi SW 4.6 mph - N/A   Overcast
2:15 AM 10.4 °F 0.8 °F 6.8 °F 85% 29.68 in 5.0 mi SSW 5.8 mph - N/A Snow Light Snow
2:35 AM 10.4 °F -0.4 °F 8.6 °F 92% 29.68 in 4.0 mi SSW 6.9 mph - N/A Snow Light Snow
2:55 AM 10.4 °F 2.2 °F 8.6 °F 92% 29.67 in 2.0 mi SSW 4.6 mph - N/A Snow Light Snow
3:15 AM 10.4 °F 4.0 °F 8.6 °F 92% 29.67 in 2.5 mi SSW 3.5 mph - N/A Snow Light Snow
3:35 AM 10.4 °F 2.2 °F 8.6 °F 92% 29.65 in 4.0 mi SSW 4.6 mph - N/A Snow Light Snow
3:55 AM 10.4 °F -0.4 °F 8.6 °F 92% 29.64 in 10.0 mi SSW 6.9 mph - N/A   Overcast
4:15 AM 10.4 °F -0.4 °F 8.6 °F 92% 29.63 in 10.0 mi SSW 6.9 mph - N/A   Overcast
4:35 AM 10.4 °F -0.4 °F 8.6 °F 92% 29.62 in 10.0 mi SSW 6.9 mph - N/A   Overcast
4:55 AM 10.4 °F 0.8 °F 8.6 °F 92% 29.61 in 5.0 mi SW 5.8 mph - N/A Snow Light Snow
5:15 AM 10.4 °F 2.2 °F 8.6 °F 92% 29.61 in 5.0 mi SW 4.6 mph - N/A Snow Light Snow
5:35 AM 10.4 °F 2.2 °F 8.6 °F 92% 29.61 in 4.0 mi SW 4.6 mph - N/A Snow Light Snow
5:55 AM 10.4 °F 2.2 °F 8.6 °F 92% 29.60 in 5.0 mi SSW 4.6 mph - N/A Snow Light Snow
6:15 AM 10.4 °F 2.2 °F 8.6 °F 92% 29.60 in 7.0 mi SSW 4.6 mph - N/A Snow Light Snow
6:35 AM 10.4 °F 2.2 °F 8.6 °F 92% 29.60 in 10.0 mi SSW 4.6 mph - N/A Snow Light Snow
6:55 AM 10.4 °F 0.8 °F 8.6 °F 92% 29.60 in 10.0 mi SSW 5.8 mph - N/A Snow Light Snow
7:15 AM 10.4 °F 2.2 °F 8.6 °F 92% 29.59 in 10.0 mi SW 4.6 mph - N/A   Mostly Cloudy
7:35 AM 10.4 °F - 8.6 °F 92% 29.59 in 10.0 mi Calm Calm - N/A   Clear
7:55 AM 10.4 °F 2.2 °F 8.6 °F 92% 29.58 in 10.0 mi SW 4.6 mph - N/A   Scattered Clouds
8:15 AM 10.4 °F 0.8 °F 8.6 °F 92% 29.58 in 10.0 mi SW 5.8 mph - N/A   Scattered Clouds
8:35 AM 10.4 °F -0.4 °F 8.6 °F 92% 29.58 in 10.0 mi SW 6.9 mph - N/A   Mostly Cloudy
8:55 AM 12.2 °F 1.7 °F 10.4 °F 92% 29.57 in 10.0 mi SW 6.9 mph - N/A Snow Light Snow
9:15 AM 12.2 °F -1.0 °F 10.4 °F 92% 29.56 in 2.0 mi SW 10.4 mph - N/A Snow Light Snow
9:35 AM 12.2 °F -0.2 °F 10.4 °F 92% 29.57 in 1.5 mi WSW 9.2 mph - N/A Snow Light Snow
9:55 AM 14.0 °F 2.9 °F 12.2 °F 93% 29.56 in 1.0 mi SW 8.1 mph - N/A Snow Light Snow
10:15 AM 15.8 °F 4.2 °F 12.2 °F 86% 29.54 in 1.2 mi SW 9.2 mph - N/A Snow Light Snow
10:35 AM 17.6 °F 7.3 °F 14.0 °F 86% 29.54 in 2.0 mi SW 8.1 mph - N/A Snow Light Snow
10:55 AM 17.6 °F 6.4 °F 12.2 °F 79% 29.54 in 3.0 mi SW 9.2 mph 18.4 mph N/A Snow Light Snow
11:15 AM 19.4 °F 7.9 °F 14.0 °F 80% 29.53 in 7.0 mi SW 10.4 mph 18.4 mph N/A Snow Light Snow
11:35 AM 19.4 °F 9.5 °F 14.0 °F 80% 29.52 in 10.0 mi WSW 8.1 mph 18.4 mph N/A   Overcast
11:55 AM 21.2 °F 7.8 °F 14.0 °F 74% 29.50 in 7.0 mi WSW 15.0 mph 24.2 mph N/A Snow Light Snow
12:15 PM 21.2 °F 7.8 °F 14.0 °F 74% 29.49 in 10.0 mi WSW 15.0 mph 24.2 mph N/A   Overcast
12:35 PM 21.2 °F 9.5 °F 14.0 °F 74% 29.48 in 10.0 mi WSW 11.5 mph 19.6 mph N/A   Overcast
12:55 PM 21.2 °F 9.5 °F 14.0 °F 74% 29.47 in 7.0 mi SW 11.5 mph 24.2 mph N/A   Overcast
1:15 PM 23.0 °F 11.7 °F 14.0 °F 68% 29.46 in 7.0 mi WSW 11.5 mph 23.0 mph N/A   Overcast
1:35 PM 23.0 °F 11.1 °F 15.8 °F 74% 29.46 in 10.0 mi SW 12.7 mph 21.9 mph N/A   Overcast
1:55 PM 23.0 °F 9.6 °F 14.0 °F 68% 29.45 in 10.0 mi SW 16.1 mph 26.5 mph N/A   Overcast
2:15 PM 23.0 °F 9.6 °F 14.0 °F 68% 29.45 in 10.0 mi WSW 16.1 mph 27.6 mph N/A   Overcast
2:35 PM 23.0 °F 9.6 °F 14.0 °F 68% 29.44 in 7.0 mi SW 16.1 mph 21.9 mph N/A   Overcast
2:55 PM 23.0 °F 10.6 °F 14.0 °F 68% 29.45 in 10.0 mi SW 13.8 mph 25.3 mph N/A   Overcast
3:15 PM 23.0 °F 12.4 °F 14.0 °F 68% 29.44 in 5.0 mi WSW 10.4 mph 31.1 mph N/A Snow Light Snow
3:35 PM 23.0 °F 10.6 °F 15.8 °F 74% 29.43 in 7.0 mi WSW 13.8 mph 24.2 mph N/A   Overcast
3:55 PM 24.8 °F 14.6 °F 15.8 °F 69% 29.45 in 10.0 mi WSW 10.4 mph 26.5 mph N/A   Overcast
4:15 PM 24.8 °F 12.4 °F 17.6 °F 74% 29.46 in 10.0 mi WSW 15.0 mph 23.0 mph N/A   Overcast
4:35 PM 26.6 °F 17.5 °F 17.6 °F 69% 29.46 in 10.0 mi WSW 9.2 mph 25.3 mph N/A   Overcast
4:55 PM 26.6 °F 15.7 °F 17.6 °F 69% 29.46 in 10.0 mi WSW 12.7 mph 24.2 mph N/A   Overcast
5:15 PM 26.6 °F 18.2 °F 17.6 °F 69% 29.48 in 10.0 mi WSW 8.1 mph 18.4 mph N/A   Overcast
5:35 PM 26.6 °F 15.7 °F 17.6 °F 69% 29.48 in 10.0 mi WSW 12.7 mph 26.5 mph N/A   Overcast
5:55 PM 26.6 °F 16.8 °F 17.6 °F 69% 29.49 in 10.0 mi WSW 10.4 mph 23.0 mph N/A   Overcast
6:15 PM 26.6 °F 19.1 °F 17.6 °F 69% 29.50 in 10.0 mi WSW 6.9 mph 18.4 mph N/A   Overcast
6:35 PM 26.6 °F 16.8 °F 19.4 °F 74% 29.50 in 10.0 mi WSW 10.4 mph 24.2 mph N/A   Overcast
6:55 PM 26.6 °F 16.2 °F 19.4 °F 74% 29.50 in 10.0 mi WSW 11.5 mph 23.0 mph N/A   Overcast
7:15 PM 26.6 °F 16.8 °F 19.4 °F 74% 29.51 in 10.0 mi WSW 10.4 mph 23.0 mph N/A   Overcast
7:55 PM 26.6 °F 18.2 °F 19.4 °F 74% 29.51 in 10.0 mi WSW 8.1 mph 17.3 mph N/A   Overcast
8:15 PM 26.6 °F 16.2 °F 19.4 °F 74% 29.51 in 10.0 mi WSW 11.5 mph 20.7 mph N/A   Overcast
8:35 PM 26.6 °F 17.5 °F 19.4 °F 74% 29.51 in 10.0 mi WSW 9.2 mph 20.7 mph N/A   Overcast
8:55 PM 26.6 °F 19.1 °F 19.4 °F 74% 29.50 in 10.0 mi West 6.9 mph 17.3 mph N/A   Overcast
9:15 PM 26.6 °F 16.2 °F 19.4 °F 74% 29.50 in 10.0 mi WSW 11.5 mph 20.7 mph N/A   Overcast
9:35 PM 26.6 °F 15.7 °F 19.4 °F 74% 29.50 in 10.0 mi West 12.7 mph 20.7 mph N/A   Overcast
9:55 PM 26.6 °F 15.7 °F 19.4 °F 74% 29.51 in 10.0 mi West 12.7 mph 24.2 mph N/A   Overcast
10:15 PM 26.6 °F 16.8 °F 19.4 °F 74% 29.51 in 10.0 mi West 10.4 mph 17.3 mph N/A   Overcast
10:35 PM 26.6 °F 16.8 °F 19.4 °F 74% 29.52 in 10.0 mi WSW 10.4 mph 19.6 mph N/A   Overcast
10:55 PM 26.6 °F 16.8 °F 19.4 °F 74% 29.50 in 10.0 mi WSW 10.4 mph 19.6 mph N/A   Overcast
11:15 PM 26.6 °F 14.7 °F 19.4 °F 74% 29.50 in 10.0 mi WSW 15.0 mph 28.8 mph N/A   Overcast
11:35 PM 26.6 °F 19.1 °F 19.4 °F 74% 29.50 in 10.0 mi WSW 6.9 mph 20.7 mph N/A   Overcast
11:55 PM 26.6 °F 16.8 °F 19.4 °F 74% 29.48 in 10.0 mi West 10.4 mph 24.2 mph N/A   Overcast